Location: Zagreb
(45.8000°N, 16.0000°E)
Time: 00:37:49
(UTC+01:00)

Transit 2A Rocket - Pass Details

Date: 08 October 2020
Orbit: 586 x 916 km, 66.7° (Epoch: 28 October)

Event Time Altitude Azimuth Distance (km) Brightness Sun altitude
Rises 23:42:52 0° 327° (NNW) 3,402 9.0 -48.4°
Enters shadow 23:44:51 - 329° (NNW) 2,640 8.3 -48.5°
Reaches altitude 10° 23:45:27 10° 330° (NNW) 2,416 - -48.6°
Maximum altitude 23:50:59 71° 55° (NE) 805 - -48.9°
Drops below altitude 10° 23:55:58 10° 139° (SE) 2,178 - -49.2°
Sets 23:58:11 0° 142° (SE) 3,043 - -49.3°
